Time,TemperatureF,DewpointF,PressureIn,WindDirection,WindDirectionDegrees,WindSpeedMPH,WindSpeedGustMPH,Humidity,HourlyPrecipIn,Conditions,Clouds,dailyrainin,SoftwareType,DateUTC
2013-09-28 00:01:00,54.9,54.6,30.22,SE,135,0.0,0.0,99,0.00,CLR,,0.00,WeatherDisplay:10.37,2013-09-28 04:01:00,
2013-09-28 00:02:00,54.9,54.6,30.22,SE,135,0.0,0.0,99,0.00,CLR,,0.00,WeatherDisplay:10.37,2013-09-28 04:02:00,
2013-09-28 00:07:00,54.7,54.4,30.22,SE,135,0.0,0.0,99,0.00,CLR,,0.00,WeatherDisplay:10.37,2013-09-28 04:07:00,
2013-09-28 00:12:00,54.5,54.2,30.22,SE,135,0.0,0.0,99,0.00,CLR,,0.00,WeatherDisplay:10.37,2013-09-28 04:12:00,
2013-09-28 00:17:00,54.5,54.2,30.22,SE,135,0.0,0.0,99,0.00,CLR,,0.00,WeatherDisplay:10.37,2013-09-28 04:17:00,
2013-09-28 00:22:00,54.5,54.2,30.22,SE,135,0.0,0.0,99,0.00,CLR,,0.00,WeatherDisplay:10.37,2013-09-28 04:22:00,
2013-09-28 00:27:00,54.3,54.0,30.22,SE,135,0.0,0.0,99,0.00,CLR,,0.00,WeatherDisplay:10.37,2013-09-28 04:27:00,
2013-09-28 00:32:00,54.1,53.9,30.22,SE,135,0.0,0.0,99,0.00,CLR,,0.00,WeatherDisplay:10.37,2013-09-28 04:32:00,
2013-09-28 00:37:00,54.1,53.9,30.22,SE,135,0.0,0.0,99,0.00,CLR,,0.00,WeatherDisplay:10.37,2013-09-28 04:37:00,
2013-09-28 00:42:00,54.3,54.0,30.22,SE,135,0.0,0.0,99,0.00,CLR,,0.00,WeatherDisplay:10.37,2013-09-28 04:42:00,
2013-09-28 00:47:00,54.3,54.0,30.22,SE,135,0.0,0.0,99,0.00,CLR,,0.00,WeatherDisplay:10.37,2013-09-28 04:47:00,
2013-09-28 00:52:00,54.5,54.2,30.22,SE,135,0.0,0.0,99,0.00,CLR,,0.00,WeatherDisplay:10.37,2013-09-28 04:52:00,
2013-09-28 00:57:00,54.3,54.0,30.22,SE,135,0.0,0.0,99,0.00,CLR,,0.00,WeatherDisplay:10.37,2013-09-28 04:57:00,
2013-09-28 01:02:00,54.0,53.7,30.22,SE,135,0.0,0.0,99,0.00,CLR,,0.00,WeatherDisplay:10.37,2013-09-28 05:02:00,
2013-09-28 01:08:00,53.8,53.5,30.22,SE,135,0.0,0.0,99,0.00,CLR,,0.00,WeatherDisplay:10.37,2013-09-28 05:08:00,
2013-09-28 01:13:00,53.8,53.5,30.22,East,90,0.0,0.0,99,0.00,CLR,,0.00,WeatherDisplay:10.37,2013-09-28 05:13:00,
2013-09-28 01:18:00,54.1,53.9,30.22,East,90,0.0,0.0,99,0.00,CLR,,0.00,WeatherDisplay:10.37,2013-09-28 05:18:00,
2013-09-28 01:23:00,54.5,54.2,30.23,East,90,0.0,0.0,99,0.00,CLR,,0.00,WeatherDisplay:10.37,2013-09-28 05:23:00,
2013-09-28 01:28:00,54.3,54.0,30.23,East,90,0.0,0.0,99,0.00,CLR,,0.00,WeatherDisplay:10.37,2013-09-28 05:28:00,
2013-09-28 01:33:00,54.0,53.7,30.22,East,90,0.0,0.0,99,0.00,CLR,,0.00,WeatherDisplay:10.37,2013-09-28 05:33:00,
2013-09-28 01:38:00,53.4,53.1,30.23,SW,225,0.0,0.0,99,0.00,CLR,,0.00,WeatherDisplay:10.37,2013-09-28 05:38:00,
2013-09-28 01:43:00,53.2,53.0,30.23,SW,225,0.0,0.0,99,0.00,CLR,,0.00,WeatherDisplay:10.37,2013-09-28 05:43:00,
2013-09-28 01:48:00,52.9,52.6,30.23,SW,225,0.0,0.0,99,0.00,CLR,,0.00,WeatherDisplay:10.37,2013-09-28 05:48:00,
2013-09-28 01:53:00,53.2,53.0,30.23,NW,315,0.0,0.0,99,0.00,CLR,,0.00,WeatherDisplay:10.37,2013-09-28 05:53:00,
2013-09-28 01:58:00,53.2,53.0,30.23,NW,315,0.0,0.0,99,0.00,CLR,,0.00,WeatherDisplay:10.37,2013-09-28 05:58:00,
2013-09-28 02:03:00,53.2,53.0,30.23,NW,315,0.0,0.0,99,0.00,CLR,,0.00,WeatherDisplay:10.37,2013-09-28 06:03:00,
2013-09-28 02:08:00,53.2,53.0,30.23,East,90,1.1,0.0,99,0.00,CLR,,0.00,WeatherDisplay:10.37,2013-09-28 06:08:00,
2013-09-28 02:13:00,53.6,53.3,30.23,East,90,0.0,0.0,99,0.00,CLR,,0.00,WeatherDisplay:10.37,2013-09-28 06:13:00,
2013-09-28 02:18:00,54.0,53.7,30.23,East,90,0.0,0.0,99,0.00,CLR,,0.00,WeatherDisplay:10.37,2013-09-28 06:18:00,
2013-09-28 02:23:00,54.3,54.0,30.23,East,90,0.0,0.0,99,0.00,CLR,,0.00,WeatherDisplay:10.37,2013-09-28 06:23:00,
2013-09-28 02:28:00,54.0,53.7,30.24,East,90,0.0,0.0,99,0.00,CLR,,0.00,WeatherDisplay:10.37,2013-09-28 06:28:00,
2013-09-28 02:33:00,53.6,53.3,30.23,South,180,0.0,0.0,99,0.00,CLR,,0.00,WeatherDisplay:10.37,2013-09-28 06:33:00,
2013-09-28 02:38:00,53.8,53.5,30.23,East,90,0.0,0.0,99,0.00,CLR,,0.00,WeatherDisplay:10.37,2013-09-28 06:38:00,
2013-09-28 02:43:00,53.6,53.3,30.23,West,270,0.0,0.0,99,0.00,CLR,,0.00,WeatherDisplay:10.37,2013-09-28 06:43:00,
2013-09-28 02:48:00,52.9,52.6,30.23,SW,225,0.0,0.0,99,0.00,,,0.00,WeatherDisplay:10.37,2013-09-28 06:48:00,
2013-09-28 02:53:00,52.5,52.2,30.23,SW,225,0.0,0.0,99,0.00,,,0.00,WeatherDisplay:10.37,2013-09-28 06:53:00,
2013-09-28 02:58:00,52.2,51.9,30.22,SW,225,0.0,0.0,99,0.00,,,0.00,WeatherDisplay:10.37,2013-09-28 06:58:00,
2013-09-28 03:03:00,52.2,51.9,30.23,SW,225,0.0,0.0,99,0.00,,,0.00,WeatherDisplay:10.37,2013-09-28 07:03:00,
2013-09-28 03:08:00,52.5,52.2,30.23,East,90,0.0,0.0,99,0.00,,,0.00,WeatherDisplay:10.37,2013-09-28 07:08:00,
2013-09-28 03:13:00,52.9,52.6,30.22,East,90,0.0,0.0,99,0.00,,,0.00,WeatherDisplay:10.37,2013-09-28 07:13:00,
2013-09-28 03:18:00,53.4,53.1,30.22,East,90,0.0,0.0,99,0.00,FEW,,0.00,WeatherDisplay:10.37,2013-09-28 07:18:00,
2013-09-28 03:23:00,53.4,53.1,30.22,North,4,0.0,0.0,99,0.00,FEW,,0.00,WeatherDisplay:10.37,2013-09-28 07:23:00,
2013-09-28 03:28:00,53.4,53.1,30.22,NE,45,0.0,0.0,99,0.00,FEW,,0.00,WeatherDisplay:10.37,2013-09-28 07:28:00,
2013-09-28 03:33:00,54.0,53.7,30.23,East,90,0.0,0.0,99,0.00,SCT,,0.00,WeatherDisplay:10.37,2013-09-28 07:33:00,
2013-09-28 03:38:00,54.5,54.2,30.22,East,90,0.0,0.0,99,0.00,SCT,,0.00,WeatherDisplay:10.37,2013-09-28 07:38:00,
2013-09-28 03:43:00,54.7,54.4,30.22,East,90,0.0,0.0,99,0.00,SCT,,0.00,WeatherDisplay:10.37,2013-09-28 07:43:00,
2013-09-28 03:48:00,54.7,54.4,30.22,East,90,0.0,0.0,99,0.00,SCT,,0.00,WeatherDisplay:10.37,2013-09-28 07:48:00,
2013-09-28 03:53:00,54.5,54.2,30.22,East,90,0.0,0.0,99,0.00,SCT,,0.00,WeatherDisplay:10.37,2013-09-28 07:53:00,
2013-09-28 03:58:00,54.3,54.0,30.22,East,90,0.0,0.0,99,0.00,SCT,,0.00,WeatherDisplay:10.37,2013-09-28 07:58:00,
2013-09-28 04:03:00,54.1,53.9,30.22,East,90,0.0,0.0,99,0.00,SCT,,0.00,WeatherDisplay:10.37,2013-09-28 08:03:00,
2013-09-28 04:08:00,54.1,53.9,30.22,East,90,0.0,0.0,99,0.00,SCT,,0.00,WeatherDisplay:10.37,2013-09-28 08:08:00,
2013-09-28 04:13:00,54.1,53.9,30.22,East,90,0.0,0.0,99,0.00,SCT,,0.00,WeatherDisplay:10.37,2013-09-28 08:13:00,
2013-09-28 04:18:00,54.1,53.9,30.22,East,90,0.0,0.0,99,0.00,BKN,,0.00,WeatherDisplay:10.37,2013-09-28 08:18:00,
2013-09-28 04:23:00,54.5,54.2,30.22,East,90,0.0,0.0,99,0.00,BKN,,0.00,WeatherDisplay:10.37,2013-09-28 08:23:00,
2013-09-28 04:28:00,54.5,54.2,30.22,East,90,0.0,0.0,99,0.00,BKN,,0.00,WeatherDisplay:10.37,2013-09-28 08:28:00,
2013-09-28 04:33:00,54.7,54.4,30.23,East,90,0.0,0.0,99,0.00,BKN,,0.00,WeatherDisplay:10.37,2013-09-28 08:33:00,
2013-09-28 04:38:00,54.7,54.4,30.23,East,90,0.0,0.0,99,0.00,BKN,,0.00,WeatherDisplay:10.37,2013-09-28 08:38:00,
2013-09-28 04:43:00,54.9,54.6,30.23,East,90,0.0,0.0,99,0.00,BKN,,0.00,WeatherDisplay:10.37,2013-09-28 08:43:00,
2013-09-28 04:48:00,55.0,54.8,30.24,SE,135,1.1,0.0,99,0.00,BKN,,0.00,WeatherDisplay:10.37,2013-09-28 08:48:00,
2013-09-28 04:53:00,55.6,55.3,30.23,East,90,1.1,0.0,99,0.00,BKN,,0.00,WeatherDisplay:10.37,2013-09-28 08:53:00,
2013-09-28 04:58:00,55.8,55.5,30.23,East,90,0.0,0.0,99,0.00,BKN,,0.00,WeatherDisplay:10.37,2013-09-28 08:58:00,
2013-09-28 05:03:00,55.9,55.7,30.23,East,90,0.0,0.0,99,0.00,OVC,,0.00,WeatherDisplay:10.37,2013-09-28 09:03:00,
2013-09-28 05:08:00,56.1,55.8,30.23,East,90,0.0,0.0,99,0.00,OVC,,0.00,WeatherDisplay:10.37,2013-09-28 09:08:00,
2013-09-28 05:13:00,56.3,56.0,30.24,East,90,0.0,0.0,99,0.00,OVC,,0.00,WeatherDisplay:10.37,2013-09-28 09:13:00,
2013-09-28 05:18:00,56.3,56.0,30.24,East,90,1.1,0.0,99,0.00,OVC,,0.00,WeatherDisplay:10.37,2013-09-28 09:18:00,
2013-09-28 05:23:00,56.3,56.0,30.24,East,90,0.0,0.0,99,0.00,OVC,,0.00,WeatherDisplay:10.37,2013-09-28 09:23:00,
2013-09-28 05:28:00,56.5,56.2,30.24,East,90,0.0,0.0,99,0.00,OVC,,0.00,WeatherDisplay:10.37,2013-09-28 09:28:00,
2013-09-28 05:33:00,56.5,56.2,30.24,East,90,0.0,0.0,99,0.00,OVC,,0.00,WeatherDisplay:10.37,2013-09-28 09:33:00,
2013-09-28 05:38:00,56.5,56.2,30.24,East,90,0.0,0.0,99,0.00,OVC,,0.00,WeatherDisplay:10.37,2013-09-28 09:38:00,
2013-09-28 05:43:00,56.5,56.2,30.24,East,90,0.0,0.0,99,0.00,OVC,,0.00,WeatherDisplay:10.37,2013-09-28 09:43:00,
2013-09-28 05:48:00,56.5,56.2,30.24,West,270,0.0,0.0,99,0.00,OVC,,0.00,WeatherDisplay:10.37,2013-09-28 09:48:00,
2013-09-28 05:53:00,56.1,55.8,30.25,West,270,0.0,0.0,99,0.00,OVC,,0.00,WeatherDisplay:10.37,2013-09-28 09:53:00,
2013-09-28 05:58:00,55.9,55.7,30.25,West,270,0.0,0.0,99,0.00,OVC,,0.00,WeatherDisplay:10.37,2013-09-28 09:58:00,
2013-09-28 06:03:00,55.9,55.7,30.25,West,270,0.0,0.0,99,0.00,OVC,,0.00,WeatherDisplay:10.37,2013-09-28 10:03:00,
2013-09-28 06:08:00,55.9,55.7,30.25,West,270,0.0,0.0,99,0.00,OVC,,0.00,WeatherDisplay:10.37,2013-09-28 10:08:00,
2013-09-28 06:13:00,55.9,55.7,30.25,West,270,0.0,0.0,99,0.00,OVC,,0.00,WeatherDisplay:10.37,2013-09-28 10:13:00,
2013-09-28 06:18:00,55.9,55.7,30.25,West,270,0.0,0.0,99,0.00,OVC,,0.00,WeatherDisplay:10.37,2013-09-28 10:18:00,
2013-09-28 06:23:00,55.9,55.7,30.25,West,270,0.0,0.0,99,0.00,OVC,,0.00,WeatherDisplay:10.37,2013-09-28 10:23:00,
2013-09-28 06:28:00,55.9,55.7,30.25,West,270,0.0,0.0,99,0.00,OVC,,0.00,WeatherDisplay:10.37,2013-09-28 10:28:00,
2013-09-28 06:33:00,55.9,55.7,30.26,West,270,0.0,0.0,99,0.00,OVC,,0.00,WeatherDisplay:10.37,2013-09-28 10:33:00,
2013-09-28 06:38:00,55.8,55.5,30.25,West,270,0.0,0.0,99,0.00,OVC,,0.00,WeatherDisplay:10.37,2013-09-28 10:38:00,
2013-09-28 06:43:00,55.8,55.5,30.25,West,270,0.0,0.0,99,0.00,OVC,,0.00,WeatherDisplay:10.37,2013-09-28 10:43:00,
2013-09-28 06:48:00,55.8,55.5,30.25,West,270,0.0,0.0,99,0.00,OVC,,0.00,WeatherDisplay:10.37,2013-09-28 10:48:00,
2013-09-28 06:53:00,55.6,55.3,30.26,NNW,338,0.0,0.0,99,0.00,OVC,,0.00,WeatherDisplay:10.37,2013-09-28 10:53:00,
2013-09-28 06:58:00,55.6,55.3,30.26,NNW,338,0.0,0.0,99,0.00,OVC,,0.00,WeatherDisplay:10.37,2013-09-28 10:58:00,
2013-09-28 07:03:00,55.6,55.3,30.26,NNW,338,0.0,0.0,99,0.00,OVC,,0.00,WeatherDisplay:10.37,2013-09-28 11:03:00,
2013-09-28 07:08:00,55.6,55.3,30.26,NW,315,0.0,0.0,99,0.00,OVC,,0.00,WeatherDisplay:10.37,2013-09-28 11:08:00,
2013-09-28 07:13:00,55.6,55.3,30.26,NW,315,0.0,0.0,99,0.00,OVC,,0.00,WeatherDisplay:10.37,2013-09-28 11:13:00,
2013-09-28 07:18:00,55.6,55.3,30.27,NW,315,0.0,0.0,99,0.00,OVC,,0.00,WeatherDisplay:10.37,2013-09-28 11:18:00,
2013-09-28 07:23:00,55.6,55.3,30.27,NW,315,0.0,0.0,99,0.00,OVC,,0.00,WeatherDisplay:10.37,2013-09-28 11:23:00,
2013-09-28 07:28:00,55.8,55.5,30.27,NW,315,0.0,0.0,99,0.00,OVC,,0.00,WeatherDisplay:10.37,2013-09-28 11:28:00,
2013-09-28 07:33:00,55.8,55.5,30.28,NW,315,0.0,0.0,99,0.00,OVC,,0.00,WeatherDisplay:10.37,2013-09-28 11:33:00,
2013-09-28 07:38:00,55.9,55.7,30.28,NW,315,0.0,0.0,99,0.00,OVC,,0.00,WeatherDisplay:10.37,2013-09-28 11:38:00,
2013-09-28 07:43:00,56.1,55.8,30.28,NW,315,0.0,0.0,99,0.00,OVC,,0.00,WeatherDisplay:10.37,2013-09-28 11:43:00,
2013-09-28 07:48:00,56.3,56.0,30.28,NW,315,0.0,0.0,99,0.00,OVC,,0.00,WeatherDisplay:10.37,2013-09-28 11:48:00,
2013-09-28 07:53:00,56.5,56.2,30.28,NW,315,0.0,0.0,99,0.00,OVC,,0.00,WeatherDisplay:10.37,2013-09-28 11:53:00,
2013-09-28 07:58:00,56.7,56.4,30.28,East,90,0.0,0.0,99,0.00,OVC,,0.00,WeatherDisplay:10.37,2013-09-28 11:58:00,
2013-09-28 08:03:00,56.8,56.6,30.28,East,90,0.0,0.0,99,0.00,OVC,,0.00,WeatherDisplay:10.37,2013-09-28 12:03:00,
2013-09-28 08:08:00,57.0,56.7,30.28,North,0,0.0,0.0,99,0.00,OVC,,0.00,WeatherDisplay:10.37,2013-09-28 12:08:00,
2013-09-28 08:13:00,57.4,57.1,30.28,North,0,0.0,0.0,99,0.00,OVC,,0.00,WeatherDisplay:10.37,2013-09-28 12:13:00,
2013-09-28 08:18:00,57.6,57.3,30.28,North,0,0.0,0.0,99,0.00,OVC,,0.00,WeatherDisplay:10.37,2013-09-28 12:18:00,
2013-09-28 08:23:00,57.7,57.5,30.29,North,0,0.0,0.0,99,0.00,OVC,,0.00,WeatherDisplay:10.37,2013-09-28 12:23:00,
2013-09-28 08:29:00,57.7,57.5,30.29,North,0,0.0,0.0,99,0.00,OVC,,0.00,WeatherDisplay:10.37,2013-09-28 12:29:00,
2013-09-28 08:34:00,58.1,57.8,30.29,North,0,0.0,0.0,99,0.00,OVC,,0.00,WeatherDisplay:10.37,2013-09-28 12:34:00,
2013-09-28 08:39:00,58.3,58.0,30.29,North,0,0.0,0.0,99,0.00,OVC,,0.00,WeatherDisplay:10.37,2013-09-28 12:39:00,
2013-09-28 08:44:00,58.6,58.4,30.29,North,0,0.0,0.0,99,0.00,OVC,,0.00,WeatherDisplay:10.37,2013-09-28 12:44:00,
2013-09-28 08:49:00,59.0,58.7,30.29,East,90,0.0,0.0,99,0.00,OVC,,0.00,WeatherDisplay:10.37,2013-09-28 12:49:00,
2013-09-28 08:54:00,59.2,58.6,30.29,NE,45,0.0,0.0,98,0.00,OVC,,0.00,WeatherDisplay:10.37,2013-09-28 12:54:00,
2013-09-28 08:59:00,59.2,58.6,30.29,East,90,1.1,0.0,98,0.00,OVC,,0.00,WeatherDisplay:10.37,2013-09-28 12:59:00,
2013-09-28 09:04:00,59.9,59.3,30.29,East,90,2.3,0.0,98,0.00,OVC,,0.00,WeatherDisplay:10.37,2013-09-28 13:04:00,
2013-09-28 09:09:00,59.7,58.9,30.29,SE,135,1.1,0.0,97,0.00,OVC,,0.00,WeatherDisplay:10.37,2013-09-28 13:09:00,
2013-09-28 09:14:00,60.1,58.9,30.29,North,0,0.0,0.0,96,0.00,OVC,,0.00,WeatherDisplay:10.37,2013-09-28 13:14:00,
2013-09-28 09:19:00,60.3,59.1,30.29,North,0,0.0,0.0,96,0.00,OVC,,0.00,WeatherDisplay:10.37,2013-09-28 13:19:00,
2013-09-28 09:24:00,60.4,59.0,30.29,East,90,0.0,0.0,95,0.00,OVC,,0.00,WeatherDisplay:10.37,2013-09-28 13:24:00,
2013-09-28 09:29:00,60.6,59.2,30.29,SE,135,1.1,0.0,95,0.00,OVC,,0.00,WeatherDisplay:10.37,2013-09-28 13:29:00,
2013-09-28 09:34:00,60.8,59.1,30.30,NW,315,0.0,0.0,94,0.00,OVC,,0.00,WeatherDisplay:10.37,2013-09-28 13:34:00,
2013-09-28 09:39:00,60.8,58.8,30.30,SE,135,2.3,2.3,93,0.00,OVC,,0.00,WeatherDisplay:10.37,2013-09-28 13:39:00,
2013-09-28 09:44:00,60.6,58.6,30.30,SW,225,1.1,0.0,93,0.00,OVC,,0.00,WeatherDisplay:10.37,2013-09-28 13:44:00,
2013-09-28 09:49:00,61.2,59.1,30.30,NW,315,0.0,0.0,93,0.00,OVC,,0.00,WeatherDisplay:10.37,2013-09-28 13:49:00,
2013-09-28 09:54:00,61.3,59.0,30.30,NW,315,1.1,0.0,92,0.00,OVC,,0.00,WeatherDisplay:10.37,2013-09-28 13:54:00,
2013-09-28 09:59:00,61.5,58.9,30.30,East,90,2.3,2.3,91,0.00,OVC,,0.00,WeatherDisplay:10.37,2013-09-28 13:59:00,
2013-09-28 10:04:00,61.3,58.4,30.30,East,90,1.1,0.0,90,0.00,OVC,,0.00,WeatherDisplay:10.37,2013-09-28 14:04:00,
2013-09-28 10:09:00,61.7,58.7,30.30,West,270,3.5,0.0,90,0.00,OVC,,0.00,WeatherDisplay:10.37,2013-09-28 14:09:00,
2013-09-28 10:14:00,61.9,58.6,30.30,West,270,1.1,0.0,89,0.00,OVC,,0.00,WeatherDisplay:10.37,2013-09-28 14:14:00,
2013-09-28 10:19:00,62.1,58.8,30.30,East,90,0.0,0.0,89,0.00,OVC,,0.00,WeatherDisplay:10.37,2013-09-28 14:19:00,
2013-09-28 10:24:00,62.6,59.0,30.30,North,0,0.0,0.0,88,0.00,OVC,,0.00,WeatherDisplay:10.37,2013-09-28 14:24:00,
2013-09-28 10:29:00,62.6,58.0,30.30,East,90,4.6,4.6,85,0.00,OVC,,0.00,WeatherDisplay:10.37,2013-09-28 14:29:00,
2013-09-28 10:34:00,62.2,57.7,30.30,SW,225,3.5,3.5,85,0.00,OVC,,0.00,WeatherDisplay:10.37,2013-09-28 14:34:00,
2013-09-28 10:39:00,62.6,58.4,30.30,NW,315,0.0,0.0,86,0.00,OVC,,0.00,WeatherDisplay:10.37,2013-09-28 14:39:00,
2013-09-28 10:44:00,63.1,58.6,30.30,West,270,1.1,0.0,85,0.00,OVC,,0.00,WeatherDisplay:10.37,2013-09-28 14:44:00,
2013-09-28 10:49:00,63.7,58.8,30.30,NE,45,0.0,0.0,84,0.00,OVC,,0.00,WeatherDisplay:10.37,2013-09-28 14:49:00,
2013-09-28 10:54:00,64.0,58.4,30.31,East,90,2.2,2.2,82,0.00,OVC,,0.00,WeatherDisplay:10.37,2013-09-28 14:54:00,
2013-09-28 10:59:00,64.2,58.6,30.31,West,270,1.1,0.0,82,0.00,OVC,,0.00,WeatherDisplay:10.37,2013-09-28 14:59:00,
2013-09-28 11:04:00,64.6,58.3,30.30,West,270,1.1,0.0,80,0.00,OVC,,0.00,WeatherDisplay:10.37,2013-09-28 15:04:00,
2013-09-28 11:09:00,64.9,58.6,30.31,NW,315,1.1,0.0,80,0.00,OVC,,0.00,WeatherDisplay:10.37,2013-09-28 15:09:00,
2013-09-28 11:14:00,65.3,58.6,30.30,West,270,1.1,0.0,79,0.00,OVC,,0.00,WeatherDisplay:10.37,2013-09-28 15:14:00,
2013-09-28 11:19:00,65.1,57.4,30.30,East,90,3.5,3.5,76,0.00,OVC,,0.00,WeatherDisplay:10.37,2013-09-28 15:19:00,
2013-09-28 11:24:00,64.9,56.1,30.30,North,0,3.5,0.0,73,0.00,OVC,,0.00,WeatherDisplay:10.37,2013-09-28 15:24:00,
2013-09-28 11:29:00,65.3,56.4,30.30,SW,225,3.5,0.0,73,0.00,OVC,,0.00,WeatherDisplay:10.37,2013-09-28 15:29:00,
2013-09-28 11:34:00,65.7,56.8,30.30,East,90,2.3,0.0,73,0.00,OVC,,0.00,WeatherDisplay:10.37,2013-09-28 15:34:00,
2013-09-28 11:39:00,66.0,56.0,30.30,East,90,4.6,4.6,70,0.00,OVC,,0.00,WeatherDisplay:10.37,2013-09-28 15:39:00,
2013-09-28 11:44:00,65.8,55.4,30.30,NE,45,5.8,5.8,69,0.00,OVC,,0.00,WeatherDisplay:10.37,2013-09-28 15:44:00,
2013-09-28 11:49:00,66.0,55.6,30.30,SE,135,3.5,3.5,69,0.00,OVC,,0.00,WeatherDisplay:10.37,2013-09-28 15:49:00,
2013-09-28 11:54:00,66.2,54.9,30.30,East,90,3.5,3.5,67,0.00,OVC,,0.00,WeatherDisplay:10.37,2013-09-28 15:54:00,
2013-09-28 11:59:00,65.8,55.0,30.30,East,90,6.9,6.9,68,0.00,OVC,,0.00,WeatherDisplay:10.37,2013-09-28 15:59:00,
2013-09-28 12:04:00,65.8,55.0,30.30,East,90,3.5,3.5,68,0.00,OVC,,0.00,WeatherDisplay:10.37,2013-09-28 16:04:00,
2013-09-28 12:09:00,66.2,55.3,30.30,NE,45,3.5,3.5,68,0.00,OVC,,0.00,WeatherDisplay:10.37,2013-09-28 16:09:00,
2013-09-28 12:14:00,66.6,55.3,30.30,North,0,2.3,2.3,67,0.00,OVC,,0.00,WeatherDisplay:10.37,2013-09-28 16:14:00,
2013-09-28 12:19:00,66.6,54.8,30.30,SE,135,3.5,3.5,66,0.00,OVC,,0.00,WeatherDisplay:10.37,2013-09-28 16:19:00,
2013-09-28 12:24:00,66.6,54.0,30.29,East,90,4.6,4.6,64,0.00,OVC,,0.00,WeatherDisplay:10.37,2013-09-28 16:24:00,
2013-09-28 12:29:00,66.9,54.8,30.29,East,90,4.6,4.6,65,0.00,OVC,,0.00,WeatherDisplay:10.37,2013-09-28 16:29:00,
2013-09-28 12:34:00,67.1,54.9,30.29,East,90,5.8,5.8,65,0.00,OVC,,0.00,WeatherDisplay:10.37,2013-09-28 16:34:00,
2013-09-28 12:39:00,67.3,54.7,30.29,NW,315,3.5,3.5,64,0.00,OVC,,0.00,WeatherDisplay:10.37,2013-09-28 16:39:00,
2013-09-28 12:44:00,67.5,54.0,30.29,North,0,3.5,0.0,62,0.00,OVC,,0.00,WeatherDisplay:10.37,2013-09-28 16:44:00,
2013-09-28 12:49:00,67.8,54.8,30.29,SE,135,1.1,0.0,63,0.00,OVC,,0.00,WeatherDisplay:10.37,2013-09-28 16:49:00,
2013-09-28 12:54:00,68.0,54.0,30.29,North,0,5.8,5.8,61,0.00,OVC,,0.00,WeatherDisplay:10.37,2013-09-28 16:54:00,
2013-09-28 12:59:00,67.6,53.7,30.28,NE,45,5.8,5.8,61,0.00,OVC,,0.00,WeatherDisplay:10.37,2013-09-28 16:59:00,
2013-09-28 13:04:00,67.5,53.1,30.29,North,0,5.8,5.8,60,0.00,OVC,,0.00,WeatherDisplay:10.37,2013-09-28 17:04:00,
2013-09-28 13:09:00,67.1,52.7,30.28,East,90,4.6,4.6,60,0.00,OVC,,0.00,WeatherDisplay:10.37,2013-09-28 17:09:00,
2013-09-28 13:14:00,67.6,53.7,30.28,East,90,3.5,0.0,61,0.00,OVC,,0.00,WeatherDisplay:10.37,2013-09-28 17:14:00,
2013-09-28 13:19:00,68.0,53.6,30.28,East,90,2.3,2.3,60,0.00,OVC,,0.00,WeatherDisplay:10.37,2013-09-28 17:19:00,
2013-09-28 13:24:00,67.5,53.1,30.28,South,180,3.5,3.5,60,0.00,OVC,,0.00,WeatherDisplay:10.37,2013-09-28 17:24:00,
2013-09-28 13:29:00,67.1,52.7,30.27,NE,45,2.3,2.3,60,0.00,OVC,,0.00,WeatherDisplay:10.37,2013-09-28 17:29:00,
2013-09-28 13:34:00,66.9,53.0,30.27,SE,135,2.3,0.0,61,0.00,OVC,,0.00,WeatherDisplay:10.37,2013-09-28 17:34:00,
2013-09-28 13:39:00,66.7,52.9,30.27,SE,135,2.3,0.0,61,0.00,OVC,,0.00,WeatherDisplay:10.37,2013-09-28 17:39:00,
2013-09-28 13:44:00,66.9,53.0,30.27,East,90,2.3,2.3,61,0.00,OVC,,0.00,WeatherDisplay:10.37,2013-09-28 17:44:00,
2013-09-28 13:49:00,67.1,53.2,30.26,SW,225,1.1,0.0,61,0.00,OVC,,0.00,WeatherDisplay:10.37,2013-09-28 17:49:00,
2013-09-28 13:54:00,67.3,52.9,30.26,NW,315,2.3,2.3,60,0.00,OVC,,0.00,WeatherDisplay:10.37,2013-09-28 17:54:00,
2013-09-28 13:59:00,67.5,53.1,30.26,NE,45,3.5,3.5,60,0.00,OVC,,0.00,WeatherDisplay:10.37,2013-09-28 17:59:00,
2013-09-28 14:04:00,67.3,52.5,30.26,East,90,3.5,3.5,59,0.00,OVC,,0.00,WeatherDisplay:10.37,2013-09-28 18:04:00,
2013-09-28 14:09:00,67.3,52.5,30.26,North,0,4.6,4.6,59,0.00,OVC,,0.00,WeatherDisplay:10.37,2013-09-28 18:09:00,
2013-09-28 14:14:00,67.1,52.3,30.26,SE,135,3.5,3.5,59,0.00,OVC,,0.00,WeatherDisplay:10.37,2013-09-28 18:14:00,
2013-09-28 14:19:00,66.9,52.6,30.26,NE,45,3.5,3.5,60,0.00,OVC,,0.00,WeatherDisplay:10.37,2013-09-28 18:19:00,
2013-09-28 14:24:00,67.1,52.7,30.26,East,90,3.5,3.5,60,0.00,OVC,,0.00,WeatherDisplay:10.37,2013-09-28 18:24:00,
2013-09-28 14:29:00,66.7,52.4,30.25,East,90,2.3,2.3,60,0.00,OVC,,0.00,WeatherDisplay:10.37,2013-09-28 18:29:00,
2013-09-28 14:34:00,66.6,51.8,30.25,NW,315,4.6,0.0,59,0.00,OVC,,0.00,WeatherDisplay:10.37,2013-09-28 18:34:00,
2013-09-28 14:39:00,66.6,52.2,30.25,SE,135,2.3,0.0,60,0.00,OVC,,0.00,WeatherDisplay:10.37,2013-09-28 18:39:00,
2013-09-28 14:44:00,66.7,52.0,30.26,East,90,3.5,3.5,59,0.00,OVC,,0.00,WeatherDisplay:10.37,2013-09-28 18:44:00,
2013-09-28 14:49:00,66.9,52.1,30.26,East,90,5.8,5.8,59,0.00,OVC,,0.00,WeatherDisplay:10.37,2013-09-28 18:49:00,
2013-09-28 14:54:00,66.6,51.8,30.26,North,0,2.3,2.3,59,0.00,OVC,,0.00,WeatherDisplay:10.37,2013-09-28 18:54:00,
2013-09-28 14:59:00,66.6,52.2,30.25,East,90,4.6,4.6,60,0.00,OVC,,0.00,WeatherDisplay:10.37,2013-09-28 18:59:00,
2013-09-28 15:04:00,66.9,53.0,30.25,NE,45,2.3,0.0,61,0.00,OVC,,0.00,WeatherDisplay:10.37,2013-09-28 19:04:00,
2013-09-28 15:09:00,67.1,52.3,30.25,North,0,2.3,0.0,59,0.00,OVC,,0.00,WeatherDisplay:10.37,2013-09-28 19:09:00,
2013-09-28 15:14:00,67.3,52.9,30.25,East,90,3.1,3.1,60,0.00,OVC,,0.00,WeatherDisplay:10.37,2013-09-28 19:14:00,
2013-09-28 15:19:00,66.9,52.6,30.25,NE,45,4.6,4.6,60,0.00,OVC,,0.00,WeatherDisplay:10.37,2013-09-28 19:19:00,
2013-09-28 15:24:00,66.7,53.3,30.25,SW,225,2.3,0.0,62,0.00,OVC,,0.00,WeatherDisplay:10.37,2013-09-28 19:24:00,
2013-09-28 15:29:00,66.9,53.0,30.25,East,90,2.3,0.0,61,0.00,OVC,,0.00,WeatherDisplay:10.37,2013-09-28 19:29:00,
2013-09-28 15:34:00,67.1,53.6,30.25,NW,315,1.1,0.0,62,0.00,OVC,,0.00,WeatherDisplay:10.37,2013-09-28 19:34:00,
2013-09-28 15:39:00,67.3,54.3,30.25,South,180,1.1,0.0,63,0.00,OVC,,0.00,WeatherDisplay:10.37,2013-09-28 19:39:00,
2013-09-28 15:44:00,67.1,53.6,30.25,North,0,1.1,0.0,62,0.00,OVC,,0.00,WeatherDisplay:10.37,2013-09-28 19:44:00,
2013-09-28 15:49:00,67.1,54.5,30.24,SW,225,1.1,0.0,64,0.00,OVC,,0.00,WeatherDisplay:10.37,2013-09-28 19:49:00,
2013-09-28 15:54:00,67.1,54.5,30.24,West,270,1.1,0.0,64,0.00,OVC,,0.00,WeatherDisplay:10.37,2013-09-28 19:54:00,
2013-09-28 15:59:00,67.3,54.3,30.24,SW,225,1.1,0.0,63,0.00,OVC,,0.00,WeatherDisplay:10.37,2013-09-28 19:59:00,
2013-09-28 16:04:00,67.3,54.7,30.23,NE,45,0.7,0.0,64,0.00,OVC,,0.00,WeatherDisplay:10.37,2013-09-28 20:04:00,
2013-09-28 16:09:00,67.3,55.1,30.23,North,0,0.0,0.0,65,0.00,OVC,,0.00,WeatherDisplay:10.37,2013-09-28 20:09:00,
2013-09-28 16:14:00,67.5,54.4,30.23,SE,135,1.1,0.0,63,0.00,OVC,,0.00,WeatherDisplay:10.37,2013-09-28 20:14:00,
2013-09-28 16:19:00,67.3,54.3,30.24,East,90,4.6,0.0,63,0.00,OVC,,0.00,WeatherDisplay:10.37,2013-09-28 20:19:00,
2013-09-28 16:24:00,67.3,54.3,30.24,North,0,1.1,0.0,63,0.00,OVC,,0.00,WeatherDisplay:10.37,2013-09-28 20:24:00,
2013-09-28 16:29:00,67.3,54.7,30.24,North,0,0.0,0.0,64,0.00,OVC,,0.00,WeatherDisplay:10.37,2013-09-28 20:29:00,
2013-09-28 16:34:00,67.3,54.7,30.24,East,90,1.1,0.0,64,0.00,OVC,,0.00,WeatherDisplay:10.37,2013-09-28 20:34:00,
2013-09-28 16:39:00,67.5,55.3,30.24,NE,45,0.0,0.0,65,0.00,OVC,,0.00,WeatherDisplay:10.37,2013-09-28 20:39:00,
2013-09-28 16:44:00,67.1,54.9,30.24,West,270,1.1,0.0,65,0.00,OVC,,0.00,WeatherDisplay:10.37,2013-09-28 20:44:00,
2013-09-28 16:49:00,66.7,54.6,30.24,NE,45,1.1,0.0,65,0.00,OVC,,0.00,WeatherDisplay:10.37,2013-09-28 20:49:00,
2013-09-28 16:54:00,66.6,54.4,30.24,NW,315,1.1,0.0,65,0.00,OVC,,0.00,WeatherDisplay:10.37,2013-09-28 20:54:00,
2013-09-28 16:59:00,66.6,54.4,30.24,East,90,1.1,0.0,65,0.00,OVC,,0.00,WeatherDisplay:10.37,2013-09-28 20:59:00,
2013-09-28 17:04:00,66.4,54.7,30.24,East,90,0.0,0.0,66,0.00,OVC,,0.00,WeatherDisplay:10.37,2013-09-28 21:04:00,
2013-09-28 17:09:00,66.4,55.1,30.24,East,90,0.0,0.0,67,0.00,OVC,,0.00,WeatherDisplay:10.37,2013-09-28 21:09:00,
2013-09-28 17:14:00,66.4,54.7,30.24,East,90,0.0,0.0,66,0.00,OVC,,0.00,WeatherDisplay:10.37,2013-09-28 21:14:00,
2013-09-28 17:19:00,66.2,54.5,30.24,East,90,0.0,0.0,66,0.00,OVC,,0.00,WeatherDisplay:10.37,2013-09-28 21:19:00,
2013-09-28 17:24:00,66.0,54.3,30.24,SW,225,0.0,0.0,66,0.00,OVC,,0.00,WeatherDisplay:10.37,2013-09-28 21:24:00,
2013-09-28 17:29:00,65.8,54.2,30.24,NE,45,1.1,0.0,66,0.00,OVC,,0.00,WeatherDisplay:10.37,2013-09-28 21:29:00,
2013-09-28 17:34:00,65.7,54.4,30.23,NE,45,0.0,0.0,67,0.00,OVC,,0.00,WeatherDisplay:10.37,2013-09-28 21:34:00,
2013-09-28 17:39:00,65.5,54.6,30.23,NE,45,0.0,0.0,68,0.00,OVC,,0.00,WeatherDisplay:10.37,2013-09-28 21:39:00,
2013-09-28 17:44:00,65.1,54.3,30.23,NE,45,0.0,0.0,68,0.00,OVC,,0.00,WeatherDisplay:10.37,2013-09-28 21:44:00,
2013-09-28 17:49:00,64.9,54.5,30.23,NE,45,1.1,0.0,69,0.00,OVC,,0.00,WeatherDisplay:10.37,2013-09-28 21:49:00,
2013-09-28 17:54:00,64.9,55.3,30.23,NE,45,0.0,0.0,71,0.00,OVC,,0.00,WeatherDisplay:10.37,2013-09-28 21:54:00,
2013-09-28 17:59:00,64.8,54.7,30.23,SE,135,0.0,0.0,70,0.00,OVC,,0.00,WeatherDisplay:10.37,2013-09-28 21:59:00,
2013-09-28 18:04:00,64.6,55.0,30.23,SE,135,0.0,0.0,71,0.00,OVC,,0.00,WeatherDisplay:10.37,2013-09-28 22:04:00,
2013-09-28 18:09:00,64.6,55.0,30.23,SE,135,0.0,0.0,71,0.00,OVC,,0.00,WeatherDisplay:10.37,2013-09-28 22:09:00,
2013-09-28 18:14:00,64.4,55.2,30.23,SE,135,0.0,0.0,72,0.00,OVC,,0.00,WeatherDisplay:10.37,2013-09-28 22:14:00,
2013-09-28 18:19:00,64.2,55.0,30.23,SE,135,0.0,0.0,72,0.00,OVC,,0.00,WeatherDisplay:10.37,2013-09-28 22:19:00,
2013-09-28 18:24:00,64.0,55.2,30.23,SE,135,0.0,0.0,73,0.00,OVC,,0.00,WeatherDisplay:10.37,2013-09-28 22:24:00,
2013-09-28 18:29:00,63.9,55.0,30.23,SE,135,0.0,0.0,73,0.00,OVC,,0.00,WeatherDisplay:10.37,2013-09-28 22:29:00,
2013-09-28 18:34:00,63.7,54.9,30.23,SE,135,0.0,0.0,73,0.00,OVC,,0.00,WeatherDisplay:10.37,2013-09-28 22:34:00,
2013-09-28 18:39:00,63.3,54.9,30.23,SE,135,0.0,0.0,74,0.00,OVC,,0.00,WeatherDisplay:10.37,2013-09-28 22:39:00,
2013-09-28 18:44:00,63.1,54.7,30.23,SE,135,0.0,0.0,74,0.00,OVC,,0.00,WeatherDisplay:10.37,2013-09-28 22:44:00,
2013-09-28 18:49:00,63.0,54.9,30.23,SE,135,0.0,0.0,75,0.00,OVC,,0.00,WeatherDisplay:10.37,2013-09-28 22:49:00,
2013-09-28 18:54:00,62.8,54.7,30.23,SE,135,0.0,0.0,75,0.00,OVC,,0.00,WeatherDisplay:10.37,2013-09-28 22:54:00,
2013-09-28 18:59:00,62.4,54.4,30.23,SE,135,0.0,0.0,75,0.00,OVC,,0.00,WeatherDisplay:10.37,2013-09-28 22:59:00,
2013-09-28 19:04:00,62.1,54.4,30.23,SE,135,0.0,0.0,76,0.00,OVC,,0.00,WeatherDisplay:10.37,2013-09-28 23:04:00,
2013-09-28 19:09:00,61.9,54.6,30.23,SE,135,0.0,0.0,77,0.00,OVC,,0.00,WeatherDisplay:10.37,2013-09-28 23:09:00,
2013-09-28 19:14:00,61.7,54.8,30.23,SE,135,0.0,0.0,78,0.00,OVC,,0.00,WeatherDisplay:10.37,2013-09-28 23:14:00,
2013-09-28 19:19:00,61.3,54.4,30.23,SE,135,0.0,0.0,78,0.00,OVC,,0.00,WeatherDisplay:10.37,2013-09-28 23:19:00,
2013-09-28 19:24:00,61.0,54.4,30.23,SE,135,0.0,0.0,79,0.00,OVC,,0.00,WeatherDisplay:10.37,2013-09-28 23:24:00,
2013-09-28 19:29:00,60.8,54.2,30.23,SE,135,0.0,0.0,79,0.00,OVC,,0.00,WeatherDisplay:10.37,2013-09-28 23:29:00,
2013-09-28 19:34:00,60.4,54.2,30.22,SE,135,0.0,0.0,80,0.00,OVC,,0.00,WeatherDisplay:10.37,2013-09-28 23:34:00,
2013-09-28 19:39:00,60.1,54.2,30.22,SE,135,0.0,0.0,81,0.00,OVC,,0.00,WeatherDisplay:10.37,2013-09-28 23:39:00,
2013-09-28 19:44:00,59.9,54.1,30.23,SE,135,0.0,0.0,81,0.00,OVC,,0.00,WeatherDisplay:10.37,2013-09-28 23:44:00,
2013-09-28 19:49:00,59.5,54.0,30.23,SE,135,0.0,0.0,82,0.00,OVC,,0.00,WeatherDisplay:10.37,2013-09-28 23:49:00,
2013-09-28 19:54:00,59.2,54.0,30.23,SE,135,0.0,0.0,83,0.00,OVC,,0.00,WeatherDisplay:10.37,2013-09-28 23:54:00,
2013-09-28 19:59:00,58.8,54.0,30.23,SE,135,0.0,0.0,84,0.00,OVC,,0.00,WeatherDisplay:10.37,2013-09-28 23:59:00,
2013-09-28 20:04:00,58.5,54.0,30.23,SE,135,0.0,0.0,85,0.00,OVC,,0.00,WeatherDisplay:10.37,2013-09-29 00:04:00,
2013-09-28 20:09:00,57.9,53.4,30.23,SE,135,0.0,0.0,85,0.00,OVC,,0.00,WeatherDisplay:10.37,2013-09-29 00:09:00,
2013-09-28 20:14:00,57.7,53.6,30.22,SE,135,0.0,0.0,86,0.00,OVC,,0.00,WeatherDisplay:10.37,2013-09-29 00:14:00,
2013-09-28 20:19:00,57.4,53.9,30.22,SE,135,0.0,0.0,88,0.00,BKN,,0.00,WeatherDisplay:10.37,2013-09-29 00:19:00,
2013-09-28 20:24:00,57.2,53.7,30.22,SE,135,0.0,0.0,88,0.00,BKN,,0.00,WeatherDisplay:10.37,2013-09-29 00:24:00,
2013-09-28 20:29:00,56.8,53.9,30.22,SE,135,0.0,0.0,90,0.00,BKN,,0.00,WeatherDisplay:10.37,2013-09-29 00:29:00,
2013-09-28 20:34:00,56.5,53.9,30.22,SE,135,0.0,0.0,91,0.00,BKN,,0.00,WeatherDisplay:10.37,2013-09-29 00:34:00,
2013-09-28 20:39:00,56.5,53.9,30.23,SE,135,0.0,0.0,91,0.00,BKN,,0.00,WeatherDisplay:10.37,2013-09-29 00:39:00,
2013-09-28 20:44:00,56.3,54.0,30.23,SE,135,0.0,0.0,92,0.00,BKN,,0.00,WeatherDisplay:10.37,2013-09-29 00:44:00,
2013-09-28 20:49:00,55.9,53.6,30.23,SE,135,0.0,0.0,92,0.00,BKN,,0.00,WeatherDisplay:10.37,2013-09-29 00:49:00,
2013-09-28 20:54:00,55.8,53.5,30.23,SE,135,0.0,0.0,92,0.00,BKN,,0.00,WeatherDisplay:10.37,2013-09-29 00:54:00,
2013-09-28 20:59:00,55.6,53.6,30.23,SE,135,0.0,0.0,93,0.00,BKN,,0.00,WeatherDisplay:10.37,2013-09-29 00:59:00,
2013-09-28 21:04:00,55.6,53.9,30.23,SE,135,0.0,0.0,94,0.00,BKN,,0.00,WeatherDisplay:10.37,2013-09-29 01:04:00,
2013-09-28 21:09:00,55.4,53.7,30.23,East,90,0.0,0.0,94,0.00,BKN,,0.00,WeatherDisplay:10.37,2013-09-29 01:09:00,
2013-09-28 21:14:00,55.2,53.5,30.23,East,90,1.1,0.0,94,0.00,BKN,,0.00,WeatherDisplay:10.37,2013-09-29 01:14:00,
2013-09-28 21:19:00,54.9,53.2,30.23,East,90,0.0,0.0,94,0.00,CLR,,0.00,WeatherDisplay:10.37,2013-09-29 01:19:00,
2013-09-28 21:24:00,54.7,53.0,30.23,East,90,0.0,0.0,94,0.00,CLR,,0.00,WeatherDisplay:10.37,2013-09-29 01:24:00,
2013-09-28 21:29:00,54.5,52.8,30.23,East,90,0.0,0.0,94,0.00,CLR,,0.00,WeatherDisplay:10.37,2013-09-29 01:29:00,
2013-09-28 21:34:00,54.3,52.9,30.23,East,90,0.0,0.0,95,0.00,CLR,,0.00,WeatherDisplay:10.37,2013-09-29 01:34:00,
2013-09-28 21:39:00,54.0,52.8,30.23,East,90,0.0,0.0,96,0.00,CLR,,0.00,WeatherDisplay:10.37,2013-09-29 01:39:00,
2013-09-28 21:45:00,54.0,52.8,30.23,East,90,0.0,0.0,96,0.00,CLR,,0.00,WeatherDisplay:10.37,2013-09-29 01:45:00,
2013-09-28 21:50:00,53.6,52.5,30.23,East,90,0.0,0.0,96,0.00,CLR,,0.00,WeatherDisplay:10.37,2013-09-29 01:50:00,
2013-09-28 21:55:00,53.4,52.3,30.23,East,90,0.0,0.0,96,0.00,CLR,,0.00,WeatherDisplay:10.37,2013-09-29 01:55:00,
2013-09-28 22:00:00,53.2,52.4,30.23,East,90,0.0,0.0,97,0.00,CLR,,0.00,WeatherDisplay:10.37,2013-09-29 02:00:00,
2013-09-28 22:05:00,53.2,52.4,30.23,East,90,0.0,0.0,97,0.00,CLR,,0.00,WeatherDisplay:10.37,2013-09-29 02:05:00,
2013-09-28 22:10:00,53.1,52.5,30.23,East,90,0.0,0.0,98,0.00,CLR,,0.00,WeatherDisplay:10.37,2013-09-29 02:10:00,
2013-09-28 22:15:00,52.9,52.3,30.23,East,90,0.0,0.0,98,0.00,CLR,,0.00,WeatherDisplay:10.37,2013-09-29 02:15:00,
2013-09-28 22:20:00,52.9,52.3,30.23,East,90,0.0,0.0,98,0.00,CLR,,0.00,WeatherDisplay:10.37,2013-09-29 02:20:00,
2013-09-28 22:25:00,52.7,52.2,30.22,East,90,0.0,0.0,98,0.00,CLR,,0.00,WeatherDisplay:10.37,2013-09-29 02:25:00,
2013-09-28 22:30:00,52.7,52.4,30.22,East,90,0.0,0.0,99,0.00,CLR,,0.00,WeatherDisplay:10.37,2013-09-29 02:30:00,
2013-09-28 22:35:00,52.5,52.2,30.22,East,90,0.0,0.0,99,0.00,CLR,,0.00,WeatherDisplay:10.37,2013-09-29 02:35:00,
2013-09-28 22:40:00,52.3,52.1,30.22,East,90,0.0,0.0,99,0.00,CLR,,0.00,WeatherDisplay:10.37,2013-09-29 02:40:00,
2013-09-28 22:45:00,52.2,51.9,30.22,East,90,0.0,0.0,99,0.00,CLR,,0.00,WeatherDisplay:10.37,2013-09-29 02:45:00,
2013-09-28 22:50:00,52.0,51.7,30.22,East,90,0.0,0.0,99,0.00,CLR,,0.00,WeatherDisplay:10.37,2013-09-29 02:50:00,
2013-09-28 22:55:00,52.0,51.7,30.22,East,90,0.0,0.0,99,0.00,CLR,,0.00,WeatherDisplay:10.37,2013-09-29 02:55:00,
2013-09-28 23:00:00,51.8,51.5,30.22,East,90,0.0,0.0,99,0.00,CLR,,0.00,WeatherDisplay:10.37,2013-09-29 03:00:00,
2013-09-28 23:05:00,51.8,51.5,30.21,East,90,0.0,0.0,99,0.00,CLR,,0.00,WeatherDisplay:10.37,2013-09-29 03:05:00,
2013-09-28 23:10:00,51.8,51.5,30.21,East,90,0.0,0.0,99,0.00,CLR,,0.00,WeatherDisplay:10.37,2013-09-29 03:10:00,
2013-09-28 23:15:00,51.8,51.5,30.21,East,90,0.0,0.0,99,0.00,CLR,,0.00,WeatherDisplay:10.37,2013-09-29 03:15:00,
2013-09-28 23:20:00,51.6,51.3,30.21,East,90,0.0,0.0,99,0.00,CLR,,0.00,WeatherDisplay:10.37,2013-09-29 03:20:00,
2013-09-28 23:25:00,51.4,51.2,30.21,East,90,0.0,0.0,99,0.00,CLR,,0.00,WeatherDisplay:10.37,2013-09-29 03:25:00,
2013-09-28 23:30:00,51.1,50.8,30.21,East,90,0.0,0.0,99,0.00,CLR,,0.00,WeatherDisplay:10.37,2013-09-29 03:30:00,
2013-09-28 23:36:00,51.1,50.8,30.21,East,90,0.0,0.0,99,0.00,CLR,,0.00,WeatherDisplay:10.37,2013-09-29 03:36:00,
2013-09-28 23:41:00,51.1,50.8,30.21,East,90,0.0,0.0,99,0.00,CLR,,0.00,WeatherDisplay:10.37,2013-09-29 03:41:00,
2013-09-28 23:46:00,50.9,50.6,30.21,East,90,0.0,0.0,99,0.00,CLR,,0.00,WeatherDisplay:10.37,2013-09-29 03:46:00,
2013-09-28 23:51:00,50.9,50.6,30.21,East,95,0.0,0.0,99,0.00,CLR,,0.00,WeatherDisplay:10.37,2013-09-29 03:51:00,
2013-09-28 23:56:00,50.6,50.3,30.20,SSE,155,0.0,2.0,99,0.00,CLR,,0.00,WeatherDisplay:10.37,2013-09-29 03:56:00,